QPF
0.00 0.00 0.00 0.00 0.00 0.00 0.00 0.00 0.00 0.00 0.00 0.00 0.00 0.00 0.00 0.00 0.00 0.00 0.00 0.00 0.00 0.00 0.00 0.00 0.00 0.00 0.00 0.00 0.00 0.00 0.00 0.00 0.00 0.00 0.00 0.00 0.00 0.00 0.00 0.00 0.00 0.00 0.00 0.00
0.00 0.00 0.00 0.00 0.00 0.00 0.00 0.00 0.00 0.00 0.00 0.00 0.00 0.00 0.00 0.00 0.00 0.00 0.00 0.00 0.00 0.00 0.00 0.00 0.00 0.00 0.00 0.00 0.00 0.00 0.00 0.00 0.00 0.00 0.00 0.00 0.00 0.00 0.00 0.00 0.00 0.00 0.00 0.00
0.00 0.00 0.00 0.00 0.00 0.00 0.00 0.00 0.00 0.00 0.00 0.00 0.00 0.00 0.00 0.00 0.00 0.00 0.00 0.00 0.00 0.00 0.00 0.00 0.00 0.00 0.00 0.00 0.00 0.00 0.00 0.00 0.00 0.00 0.00 0.00 0.00 0.00 0.00 0.00 0.00 0.00 0.00 0.00
0.00 0.00 0.00 0.00 0.00 0.00 0.00 0.00 0.00 0.00 0.00 0.00 0.00 0.00 0.00 0.00 0.00 0.00 0.00 0.00 0.00 0.00 0.00 0.00 0.00 0.00 0.00 0.00 0.00 0.00 0.00 0.00 0.00 0.00 0.00 0.00 0.00 0.00 0.00 0.00 0.00 0.00 0.00 0.00
0.00 0.00 0.00 0.00 0.00 0.00 0.00 0.00 0.00 0.00 0.00 0.00 0.00 0.00 0.00 0.00 0.00 0.00 0.00 0.00 0.00 0.00 0.00 0.00 0.00 0.00 0.00 0.00 0.00 0.00 0.00 0.00 0.00 0.00 0.00 0.00 0.00 0.00 0.00 0.00 0.00 0.00 0.00 0.00
0.00 0.00 0.00 0.00 0.00 0.00 0.00 0.00 0.00 0.00 0.00 0.00 0.00 0.00 0.00 0.00 0.00 0.00 0.00 0.00 0.00 0.00 0.00 0.01 0.01 0.01 0.00 0.01 0.00 0.00 0.00 0.00 0.00 0.00 0.00 0.00 0.00 0.00 0.00 0.00 0.00 0.00 0.00 0.00
0.00 0.00 0.00 0.00 0.00 0.00 0.00 0.00 0.00 0.00 0.00 0.00 0.00 0.00 0.00 0.00 0.00 0.01 0.00 0.00 0.00 0.00 0.00 0.00 0.00 0.00 0.00 0.00 0.00 0.00 0.00 0.00 0.00 0.00 0.00 0.00 0.00 0.00 0.00 0.00 0.00 0.00 0.00 0.00
0.00 0.00 0.00 0.00 0.00 0.00 0.00 0.00 0.00 0.00 0.00 0.00 0.00 0.00 0.00 0.00 0.00 0.00 0.00 0.00 0.00 0.00 0.00 0.00 0.00 0.00 0.01 0.00 0.00 0.00 0.00 0.00 0.00 0.00 0.00 0.00 0.00 0.00 0.00 0.00 0.00 0.00 0.00 0.00
0.00 0.00 0.00 0.00 0.00 0.00 0.00 0.00 0.00 0.00 0.00 0.00 0.00 0.00 0.00 0.00 0.00 0.00 0.00 0.00 0.00 0.00 0.00 0.00 0.00 0.01 0.01 0.01 0.01 0.01 0.01 0.01 0.01 0.01 0.02 0.02 0.02 0.01 0.01 0.00 0.00 0.00 0.00 0.00
0.00 0.00 0.00 0.00 0.00 0.00 0.00 0.00 0.00 0.00 0.00 0.00 0.00 0.00 0.00 0.00 0.00 0.00 0.00 0.00 0.00 0.00 0.00 0.00 0.00 0.01 0.01 0.01 0.01 0.02 0.02 0.02 0.02 0.02 0.02 0.03 0.02 0.02 0.02 0.01 0.01 0.00 0.00 0.00
0.00 0.00 0.00 0.00 0.00 0.00 0.00 0.00 0.00 0.00 0.00 0.00 0.00 0.00 0.00 0.00 0.00 0.00 0.00 0.00 0.00 0.00 0.00 0.00 0.00 0.00 0.01 0.01 0.01 0.01 0.01 0.02 0.03 0.03 0.02 0.03 0.03 0.02 0.02 0.02 0.01 0.01 0.00 0.00
0.00 0.00 0.00 0.00 0.00 0.00 0.00 0.00 0.00 0.01 0.01 0.01 0.03 0.03 0.00 0.01 0.01 0.00 0.01 0.00 0.00 0.00 0.01 0.00 0.01 0.00 0.00 0.01 0.01 0.01 0.02 0.02 0.03 0.03 0.03 0.03 0.03 0.03 0.03 0.03 0.03 0.02 0.01 0.00
0.00 0.00 0.00 0.00 0.00 0.00 0.00 0.00 0.00 0.00 0.01 0.01 0.03 0.02 0.01 0.01 0.01 0.01 0.01 0.01 0.01 0.02 0.01 0.01 0.01 0.01 0.01 0.01 0.02 0.02 0.02 0.02 0.03 0.03 0.03 0.03 0.03 0.03 0.03 0.03 0.03 0.03 0.03 0.02
0.00 0.00 0.00 0.00 0.00 0.00 0.00 0.00 0.00 0.00 0.00 0.00 0.00 0.00 0.00 0.00 0.00 0.01 0.01 0.01 0.01 0.01 0.02 0.03 0.04 0.04 0.05 0.06 0.06 0.06 0.05 0.05 0.04 0.04 0.04 0.04 0.04 0.04 0.04 0.04 0.04 0.03 0.04 0.03
0.00 0.00 0.00 0.00 0.00 0.00 0.00 0.00 0.00 0.00 0.00 0.00 0.00 0.00 0.00 0.00 0.00 0.01 0.01 0.01 0.01 0.01 0.01 0.01 0.01 0.02 0.02 0.03 0.04 0.05 0.07 0.08 0.08 0.07 0.07 0.07 0.08 0.09 0.08 0.08 0.07 0.07 0.05 0.05
0.00 0.00 0.00 0.00 0.00 0.00 0.00 0.00 0.00 0.00 0.00 0.00 0.00 0.00 0.00 0.00 0.00 0.00 0.01 0.01 0.01 0.01 0.01 0.00 0.00 0.00 0.00 0.00 0.00 0.00 0.01 0.02 0.02 0.03 0.05 0.05 0.05 0.06 0.07 0.08 0.09 0.09 0.09 0.09
0.00 0.00 0.00 0.00 0.00 0.00 0.00 0.00 0.00 0.00 0.00 0.00 0.00 0.00 0.00 0.00 0.00 0.00 0.00 0.00 0.00 0.00 0.00 0.00 0.00 0.00 0.00 0.00 0.00 0.00 0.00 0.00 0.00 0.00 0.01 0.01 0.01 0.01 0.01 0.01 0.02 0.02 0.02 0.02
0.00 0.00 0.01 0.00 0.00 0.00 0.00 0.00 0.00 0.00 0.00 0.00 0.00 0.00 0.00 0.00 0.00 0.00 0.00 0.00 0.00 0.00 0.00 0.00 0.00 0.00 0.00 0.00 0.00 0.00 0.00 0.00 0.00 0.00 0.00 0.00 0.00 0.00 0.00 0.00 0.00 0.00 0.00 0.00
0.00 0.01 0.01 0.01 0.00 0.00 0.00 0.00 0.00 0.00 0.00 0.00 0.00 0.00 0.00 0.00 0.00 0.00 0.00 0.00 0.00 0.00 0.00 0.00 0.00 0.00 0.00 0.00 0.00 0.00 0.00 0.00 0.00 0.00 0.00 0.00 0.00 0.00 0.00 0.00 0.00 0.00 0.00 0.00
0.00 0.00 0.00 0.00 0.00 0.00 0.00 0.00 0.00 0.00 0.00 0.00 0.00 0.00 0.00 0.00 0.00 0.00 0.00 0.00 0.00 0.00 0.00 0.00 0.00 0.00 0.00 0.00 0.00 0.00 0.00 0.00 0.00 0.00 0.00 0.00 0.00 0.00 0.00 0.00 0.00 0.00 0.00 0.00
0.00 0.00 0.00 0.00 0.00 0.00 0.00 0.00 0.00 0.00 0.00 0.00 0.00 0.00 0.00 0.00 0.00 0.00 0.00 0.00 0.00 0.00 0.00 0.00 0.00 0.00 0.00 0.00 0.00 0.00 0.00 0.00 0.00 0.00 0.00 0.00 0.00 0.00 0.00 0.00 0.00 0.00 0.00 0.00
0.00 0.00 0.00 0.00 0.00 0.00 0.00 0.00 0.00 0.00 0.00 0.00 0.00 0.00 0.00 0.00 0.00 0.00 0.00 0.00 0.00 0.00 0.00 0.00 0.00 0.00 0.00 0.00 0.00 0.00 0.00 0.00 0.00 0.00 0.00 0.00 0.00 0.00 0.00 0.00 0.00 0.00 0.00 0.00
0.00 0.00 0.00 0.00 0.00 0.00 0.00 0.00 0.00 0.00 0.00 0.00 0.00 0.00 0.00 0.00 0.00 0.00 0.00 0.00 0.00 0.00 0.00 0.00 0.00 0.00 0.00 0.00 0.00 0.00 0.00 0.00 0.00 0.00 0.00 0.00 0.00 0.00 0.00 0.00 0.00 0.00 0.00 0.00
0.00 0.00 0.00 0.00 0.00 0.00 0.00 0.00 0.00 0.00 0.00 0.00 0.00 0.00 0.00 0.00 0.00 0.00 0.00 0.00 0.00 0.00 0.00 0.00 0.00 0.00 0.00 0.00 0.00 0.00 0.00 0.00 0.00 0.00 0.00 0.00 0.00 0.00 0.00 0.00 0.00 0.00 0.00 0.00
0.00 0.00 0.00 0.00 0.00 0.00 0.00 0.00 0.00 0.00 0.00 0.00 0.00 0.00 0.00 0.00 0.00 0.00 0.00 0.00 0.00 0.00 0.00 0.00 0.00 0.00 0.00 0.00 0.00 0.00 0.00 0.00 0.00 0.00 0.00 0.00 0.00 0.00 0.00 0.00 0.00 0.00 0.00 0.00
0.00 0.00 0.00 0.00 0.00 0.00 0.00 0.00 0.00 0.00 0.00 0.00 0.00 0.00 0.00 0.00 0.00 0.00 0.00 0.00 0.00 0.00 0.00 0.00 0.00 0.00 0.00 0.00 0.00 0.00 0.00 0.00 0.00 0.00 0.00 0.00 0.00 0.00 0.00 0.00 0.00 0.00 0.00 0.00
MSLP
1011.60 1012.21 1011.90 1012.10 1012.34 1012.57 1012.71 1012.88 1012.74 1011.93 1011.32 1011.52 1011.81 1012.32 1012.74 1014.39 1015.57 1017.10 1018.02 1018.75 1018.95 1018.75 1018.48 1017.45 1016.06 1014.27 1012.87 1012.65 1012.66 1012.69 1013.05 1013.51 1014.23 1015.24 1016.14 1016.79 1017.07 1017.33 1017.56 1017.72 1017.80 1018.03 1018.26 1018.48
1012.40 1012.23 1011.64 1011.93 1012.35 1012.71 1012.96 1013.11 1012.80 1011.92 1011.43 1011.78 1012.00 1012.81 1014.39 1015.83 1018.25 1019.46 1020.37 1020.74 1020.86 1020.29 1019.38 1018.50 1017.50 1016.44 1015.32 1014.28 1013.77 1013.46 1013.45 1013.66 1014.00 1014.63 1015.52 1016.14 1016.81 1017.34 1017.52 1017.66 1017.85 1018.02 1018.23 1018.48
1012.19 1011.59 1011.36 1011.82 1012.36 1012.78 1012.79 1013.05 1012.70 1012.42 1011.84 1011.85 1012.37 1013.30 1015.32 1018.05 1019.34 1020.71 1021.74 1022.54 1022.57 1022.35 1021.61 1020.64 1019.55 1018.74 1017.61 1016.41 1015.24 1014.30 1014.09 1014.27 1014.42 1014.80 1015.53 1016.39 1016.79 1017.37 1017.70 1017.88 1018.03 1018.14 1018.30 1018.54
1012.08 1011.32 1011.40 1011.65 1011.91 1012.11 1012.40 1011.56 1011.89 1012.40 1013.01 1013.19 1013.02 1014.62 1015.77 1018.07 1020.04 1021.64 1023.08 1023.63 1024.00 1023.83 1023.33 1022.60 1021.70 1020.60 1019.79 1018.66 1016.94 1015.56 1014.78 1014.75 1014.98 1015.09 1015.41 1015.90 1016.34 1017.18 1017.36 1017.52 1017.86 1018.11 1018.30 1018.52
1011.46 1011.13 1011.11 1011.27 1011.04 1011.41 1011.39 1011.40 1011.98 1012.50 1013.19 1013.64 1013.99 1015.95 1016.35 1018.45 1020.84 1023.13 1024.64 1025.32 1025.69 1025.63 1025.15 1024.49 1023.85 1023.03 1021.97 1020.40 1019.13 1017.68 1016.32 1016.02 1015.96 1015.97 1015.87 1015.92 1016.38 1016.80 1017.12 1017.50 1017.82 1018.14 1018.36 1018.50
1011.65 1011.05 1010.86 1010.48 1010.38 1010.73 1011.01 1011.62 1012.44 1013.15 1013.84 1014.30 1014.35 1016.19 1018.28 1021.56 1024.02 1025.20 1026.24 1026.82 1027.08 1026.84 1026.45 1026.09 1025.58 1024.49 1023.22 1022.02 1020.68 1019.58 1018.63 1017.96 1017.26 1016.83 1016.92 1017.05 1016.76 1016.86 1017.35 1017.73 1018.00 1018.26 1018.40 1018.60
1012.45 1011.51 1010.84 1010.53 1010.67 1010.94 1011.19 1012.08 1013.28 1013.90 1014.55 1014.32 1015.06 1017.54 1021.12 1023.75 1025.74 1027.04 1027.77 1028.15 1028.37 1028.34 1027.82 1027.26 1026.51 1025.71 1024.95 1023.84 1022.84 1021.75 1020.81 1019.90 1019.11 1018.31 1017.63 1017.52 1017.59 1017.81 1017.66 1017.45 1017.71 1018.21 1018.43 1018.50
1014.46 1012.80 1011.73 1011.34 1011.04 1011.12 1011.66 1012.27 1013.15 1013.58 1014.24 1014.95 1016.05 1018.93 1022.60 1025.32 1027.03 1028.19 1028.88 1029.37 1029.38 1029.26 1029.15 1028.82 1028.44 1027.81 1027.07 1025.97 1024.91 1023.85 1022.79 1021.88 1021.06 1020.01 1019.23 1018.76 1018.25 1017.94 1017.93 1018.15 1018.40 1018.23 1018.03 1018.05
1016.42 1014.72 1013.16 1012.46 1012.09 1011.95 1012.58 1012.75 1012.73 1013.60 1014.41 1015.94 1017.03 1021.16 1024.28 1026.11 1027.77 1028.94 1029.62 1030.04 1030.28 1030.32 1030.23 1030.03 1029.66 1029.20 1028.53 1027.68 1026.77 1025.85 1024.77 1023.84 1023.06 1021.96 1020.85 1020.13 1019.61 1019.14 1018.65 1018.35 1018.33 1018.33 1018.36 1018.41
1018.18 1017.12 1015.31 1013.99 1013.07 1012.96 1013.25 1013.71 1014.31 1015.10 1016.11 1017.05 1018.00 1021.58 1024.79 1027.40 1029.05 1030.14 1030.74 1031.18 1031.44 1031.38 1031.14 1030.94 1030.75 1030.29 1029.74 1029.20 1028.40 1027.39 1026.46 1025.41 1024.74 1023.80 1022.48 1021.80 1021.28 1020.55 1019.87 1019.31 1019.04 1018.75 1018.47 1018.35
1019.24 1019.04 1017.69 1016.32 1016.36 1016.56 1016.09 1016.54 1017.28 1017.49 1018.01 1019.18 1020.84 1024.37 1027.63 1029.65 1031.05 1031.77 1032.27 1032.53 1032.63 1032.52 1032.37 1032.00 1031.64 1031.30 1030.86 1030.28 1029.46 1028.57 1027.64 1026.76 1025.84 1025.30 1024.01 1023.09 1022.54 1021.96 1021.23 1020.59 1020.03 1019.54 1019.05 1018.58
1020.33 1020.34 1020.17 1019.39 1019.50 1018.93 1019.59 1020.75 1021.05 1021.29 1021.72 1022.86 1024.64 1027.45 1030.32 1031.56 1032.53 1033.05 1033.38 1033.49 1033.61 1033.68 1033.46 1033.05 1032.62 1032.08 1031.63 1031.14 1030.48 1029.83 1029.05 1028.20 1027.39 1026.56 1025.54 1024.63 1023.90 1023.17 1022.54 1021.92 1021.36 1020.68 1019.85 1019.42
1021.25 1021.46 1021.76 1021.11 1021.10 1020.79 1022.38 1024.07 1024.33 1024.66 1025.09 1026.22 1028.51 1030.32 1032.38 1033.32 1033.95 1034.27 1034.51 1034.61 1034.53 1034.37 1034.08 1033.73 1033.29 1032.89 1032.39 1031.96 1031.43 1030.90 1030.23 1029.39 1028.56 1027.46 1026.61 1025.84 1025.12 1024.39 1023.75 1023.21 1022.60 1021.91 1021.16 1020.50
1021.77 1022.60 1022.94 1023.12 1023.40 1024.10 1025.37 1026.50 1027.38 1027.92 1029.32 1029.82 1031.08 1033.02 1034.58 1035.47 1035.69 1035.60 1035.73 1035.72 1035.54 1035.27 1034.89 1034.36 1034.01 1033.60 1033.16 1032.76 1032.09 1031.43 1030.86 1030.23 1029.33 1028.44 1027.68 1026.96 1026.24 1025.59 1024.89 1024.27 1023.68 1023.08 1022.55 1021.80
1023.04 1023.82 1024.11 1024.38 1024.80 1025.56 1027.55 1028.85 1029.70 1030.68 1031.86 1033.16 1034.46 1035.92 1037.06 1037.54 1037.47 1037.06 1036.81 1036.66 1036.42 1036.00 1035.52 1035.06 1034.51 1034.09 1033.53 1033.04 1032.53 1031.86 1031.10 1030.46 1029.73 1029.17 1028.36 1027.80 1027.22 1026.49 1025.75 1025.05 1024.56 1024.03 1023.38 1022.87
1024.30 1024.77 1025.25 1025.72 1026.01 1026.90 1029.36 1030.86 1031.95 1033.10 1034.35 1035.42 1036.67 1038.04 1038.50 1038.64 1038.25 1038.09 1037.76 1037.55 1037.32 1036.88 1036.38 1035.79 1035.25 1034.66 1033.96 1033.36 1032.93 1032.11 1031.44 1030.77 1029.98 1029.44 1028.95 1028.23 1027.56 1026.91 1026.30 1025.71 1025.24 1024.82 1024.30 1023.67
1025.33 1025.79 1026.72 1027.20 1027.67 1029.08 1031.72 1033.44 1034.27 1035.41 1036.51 1037.65 1038.75 1039.52 1039.66 1039.55 1039.24 1038.83 1038.44 1038.43 1038.19 1037.57 1036.97 1036.40 1035.80 1035.25 1034.61 1034.04 1033.32 1032.48 1031.68 1030.96 1030.36 1029.50 1028.91 1028.37 1027.82 1027.09 1026.59 1025.91 1025.42 1025.09 1024.76 1024.32
1025.77 1026.71 1027.67 1028.93 1029.57 1031.79 1034.28 1035.28 1036.17 1037.13 1038.38 1039.26 1040.05 1040.67 1040.82 1040.68 1039.84 1039.18 1038.76 1038.93 1038.64 1038.03 1037.33 1036.67 1036.08 1035.47 1034.85 1034.21 1033.52 1032.76 1032.02 1031.32 1030.55 1029.91 1029.25 1028.74 1027.82 1027.44 1027.02 1026.15 1025.43 1025.23 1024.84 1024.39
1026.34 1027.59 1028.97 1030.64 1032.35 1034.07 1035.67 1036.95 1038.00 1038.80 1040.01 1040.81 1041.47 1041.53 1041.48 1040.86 1040.05 1039.33 1039.21 1039.07 1039.00 1038.25 1037.58 1036.93 1036.18 1035.49 1034.82 1034.31 1033.62 1033.04 1032.21 1031.42 1030.83 1030.10 1029.60 1029.02 1028.32 1027.38 1027.41 1026.55 1025.66 1025.18 1024.84 1024.52
1028.19 1029.34 1030.77 1032.74 1034.57 1036.02 1037.33 1038.33 1038.99 1039.95 1041.26 1041.85 1042.39 1042.43 1042.34 1041.68 1041.14 1040.37 1039.23 1038.80 1038.34 1037.83 1037.24 1036.56 1035.83 1035.29 1034.77 1034.14 1033.60 1033.19 1032.40 1031.76 1031.10 1030.51 1029.87 1029.28 1028.37 1027.87 1027.31 1027.00 1026.00 1025.40 1025.11 1024.67
1031.43 1032.68 1034.08 1035.29 1036.51 1037.87 1038.73 1039.80 1040.39 1041.85 1043.21 1043.04 1043.07 1043.08 1042.94 1042.64 1041.60 1039.81 1039.07 1038.52 1038.06 1037.30 1036.67 1036.05 1035.51 1035.01 1034.37 1033.75 1033.35 1033.02 1032.33 1031.80 1031.31 1030.88 1030.18 1029.54 1028.71 1028.02 1027.42 1026.69 1025.94 1025.48 1025.15 1024.77
1035.38 1036.79 1037.43 1038.11 1038.87 1039.74 1040.38 1041.00 1042.23 1042.90 1043.26 1043.79 1043.73 1043.51 1042.83 1041.73 1040.59 1039.68 1038.79 1038.02 1037.43 1036.74 1036.07 1035.61 1035.04 1034.51 1033.94 1033.44 1033.08 1032.45 1031.91 1031.33 1030.96 1030.41 1029.91 1029.40 1028.91 1028.36 1027.53 1026.84 1026.34 1025.70 1025.31 1025.03
1038.25 1039.54 1039.97 1040.32 1040.46 1040.87 1041.51 1042.32 1043.04 1043.47 1044.28 1044.28 1044.12 1043.06 1042.37 1041.53 1040.38 1039.40 1038.39 1037.61 1036.91 1036.32 1035.78 1035.25 1034.71 1034.10 1033.64 1033.20 1032.71 1032.14 1031.64 1031.15 1030.56 1030.12 1029.61 1029.09 1028.53 1027.97 1027.46 1026.65 1026.08 1025.70 1025.25 1024.74
1040.34 1041.06 1041.73 1041.93 1042.09 1042.42 1042.93 1043.49 1043.88 1044.38 1044.40 1044.07 1043.47 1042.77 1042.00 1041.02 1039.92 1039.00 1038.23 1037.48 1036.84 1036.20 1035.53 1034.97 1034.47 1034.04 1033.46 1033.02 1032.61 1032.22 1031.56 1030.94 1030.38 1029.79 1029.20 1028.58 1027.96 1027.24 1026.64 1026.45 1025.89 1025.44 1025.09 1024.62
1042.49 1042.85 1043.80 1043.82 1043.65 1043.41 1044.07 1044.30 1044.56 1044.55 1043.95 1043.52 1042.53 1041.90 1041.11 1040.17 1039.39 1038.76 1038.00 1037.35 1036.71 1036.06 1035.44 1035.00 1034.56 1033.98 1033.41 1033.01 1032.52 1031.99 1031.30 1030.75 1030.13 1029.51 1028.90 1028.28 1027.64 1027.10 1026.49 1025.96 1025.47 1024.86 1024.25 1023.82
1044.20 1044.99 1045.70 1045.44 1045.75 1045.88 1045.07 1044.25 1044.16 1044.28 1043.61 1042.60 1041.80 1040.91 1040.31 1039.78 1039.09 1038.48 1037.85 1037.24 1036.62 1035.93 1035.36 1034.91 1034.46 1033.92 1033.33 1032.78 1032.20 1031.66 1031.14 1030.61 1030.05 1029.34 1028.63 1028.06 1027.34 1026.84 1026.31 1025.70 1024.96 1024.49 1023.64 1023.06
Thickness
5624 5618 5622 5623 5622 5628 5628 5622 5625 5634 5645 5642 5637 5638 5644 5622 5609 5602 5599 5594 5593 5596 5600 5609 5621 5638 5652 5652 5651 5650 5647 5643 5637 5628 5623 5618 5617 5616 5617 5617 5617 5615 5614 5613
5610 5608 5623 5626 5618 5616 5615 5612 5612 5624 5630 5627 5631 5632 5615 5599 5583 5579 5574 5573 5573 5578 5585 5593 5601 5610 5620 5631 5635 5636 5635 5632 5630 5626 5618 5615 5610 5608 5609 5610 5608 5605 5604 5605
5602 5618 5620 5617 5611 5608 5605 5601 5605 5610 5621 5622 5622 5621 5607 5574 5568 5564 5558 5551 5552 5554 5559 5567 5576 5582 5592 5601 5612 5622 5621 5619 5617 5615 5610 5604 5603 5599 5598 5597 5594 5594 5594 5595
5600 5610 5613 5611 5610 5603 5600 5610 5610 5605 5601 5598 5614 5594 5612 5574 5556 5545 5534 5532 5529 5532 5537 5542 5549 5558 5564 5573 5588 5600 5606 5605 5603 5603 5602 5600 5597 5592 5590 5590 5587 5586 5587 5586
5604 5610 5608 5603 5607 5603 5602 5606 5599 5597 5587 5590 5596 5586 5602 5565 5544 5525 5511 5506 5505 5507 5511 5517 5522 5529 5536 5548 5559 5572 5583 5584 5585 5586 5588 5588 5586 5583 5580 5578 5577 5576 5575 5575
5595 5602 5606 5604 5608 5603 5604 5598 5584 5568 5569 5569 5585 5586 5583 5507 5497 5495 5489 5485 5483 5486 5490 5493 5498 5507 5516 5525 5535 5544 5552 5557 5563 5567 5567 5567 5571 5570 5567 5565 5564 5563 5562 5562
5582 5591 5597 5600 5596 5594 5591 5576 5559 5561 5549 5569 5568 5569 5498 5483 5467 5462 5460 5460 5461 5462 5467 5472 5478 5484 5491 5499 5505 5514 5521 5529 5535 5541 5548 5550 5550 5549 5552 5554 5553 5550 5549 5549
5556 5572 5585 5587 5588 5584 5571 5566 5552 5553 5553 5559 5553 5558 5482 5454 5448 5444 5438 5435 5440 5441 5442 5445 5449 5454 5460 5468 5476 5484 5492 5499 5505 5514 5520 5525 5530 5533 5534 5533 5532 5535 5538 5538
5523 5551 5556 5567 5566 5571 5558 5552 5560 5549 5548 5529 5546 5450 5445 5441 5431 5425 5419 5413 5411 5412 5415 5419 5423 5427 5433 5440 5447 5454 5462 5468 5474 5483 5492 5499 5504 5508 5513 5516 5518 5519 5519 5520
5505 5506 5531 5542 5552 5554 5551 5546 5540 5525 5529 5525 5541 5483 5459 5414 5402 5398 5392 5388 5387 5387 5388 5390 5394 5400 5405 5409 5416 5425 5432 5440 5445 5453 5464 5470 5474 5481 5487 5492 5495 5499 5503 5504
5479 5488 5501 5516 5504 5503 5509 5493 5487 5499 5499 5511 5531 5471 5392 5375 5368 5363 5360 5359 5358 5360 5362 5363 5367 5371 5376 5381 5388 5396 5404 5411 5418 5422 5433 5441 5446 5451 5458 5464 5470 5475 5480 5485
5468 5454 5448 5473 5457 5465 5455 5449 5454 5456 5443 5438 5453 5421 5350 5346 5342 5340 5335 5334 5331 5331 5332 5335 5337 5343 5348 5352 5359 5365 5373 5380 5386 5392 5401 5408 5415 5422 5428 5434 5440 5447 5455 5460
5455 5434 5410 5461 5458 5454 5417 5393 5401 5413 5412 5402 5420 5383 5323 5317 5315 5312 5307 5305 5303 5303 5304 5306 5310 5312 5318 5322 5328 5334 5341 5348 5355 5364 5371 5378 5385 5392 5399 5404 5411 5418 5425 5432
5446 5421 5411 5401 5410 5398 5397 5362 5355 5350 5316 5327 5335 5296 5273 5276 5278 5282 5274 5272 5272 5273 5275 5279 5282 5285 5290 5295 5301 5307 5313 5319 5326 5334 5341 5347 5354 5360 5368 5375 5381 5387 5393 5401
5406 5374 5397 5402 5397 5387 5330 5332 5330 5306 5268 5297 5264 5252 5222 5228 5240 5243 5241 5243 5244 5245 5249 5253 5257 5261 5266 5269 5273 5280 5287 5292 5299 5304 5311 5317 5323 5330 5337 5345 5350 5356 5363 5370
5385 5352 5375 5349 5368 5352 5300 5296 5297 5289 5259 5231 5209 5209 5207 5209 5211 5215 5213 5219 5215 5217 5219 5225 5229 5233 5240 5244 5246 5253 5258 5263 5272 5276 5282 5288 5295 5302 5310 5316 5321 5326 5332 5339
5365 5346 5312 5294 5342 5329 5300 5256 5270 5251 5230 5224 5233 5196 5188 5193 5201 5198 5190 5191 5190 5191 5192 5195 5199 5204 5209 5213 5220 5226 5234 5238 5244 5252 5257 5262 5268 5275 5281 5289 5294 5298 5303 5309
5345 5332 5320 5266 5321 5278 5236 5229 5221 5218 5199 5188 5189 5175 5163 5166 5170 5175 5169 5168 5169 5172 5174 5175 5178 5181 5185 5191 5196 5200 5207 5213 5219 5226 5232 5235 5244 5248 5253 5262 5270 5273 5277 5282
5329 5316 5294 5267 5243 5232 5207 5199 5191 5184 5182 5165 5154 5153 5147 5145 5144 5150 5150 5148 5146 5151 5155 5159 5162 5166 5169 5172 5176 5179 5185 5191 5195 5201 5205 5210 5216 5225 5224 5233 5242 5248 5252 5256
5300 5279 5281 5232 5245 5250 5185 5186 5179 5163 5171 5147 5141 5132 5124 5134 5133 5140 5133 5147 5145 5143 5145 5148 5150 5150 5149 5154 5158 5161 5165 5167 5171 5178 5181 5184 5192 5197 5201 5203 5213 5219 5223 5227
5254 5229 5210 5208 5196 5178 5161 5154 5154 5163 5163 5131 5127 5120 5117 5121 5123 5136 5136 5134 5133 5134 5135 5137 5139 5138 5139 5141 5143 5144 5147 5147 5152 5155 5158 5161 5167 5173 5177 5183 5189 5194 5196 5201
5183 5171 5172 5151 5144 5181 5148 5155 5161 5134 5112 5110 5102 5104 5112 5117 5120 5121 5123 5125 5126 5126 5126 5125 5127 5128 5127 5127 5129 5132 5132 5135 5136 5140 5142 5143 5145 5148 5154 5160 5163 5169 5173 5176
5193 5159 5163 5168 5166 5149 5141 5138 5112 5106 5112 5102 5095 5100 5098 5102 5107 5108 5111 5110 5111 5111 5111 5111 5111 5112 5112 5110 5111 5114 5114 5116 5119 5121 5124 5126 5128 5131 5134 5141 5145 5149 5152 5156
5150 5135 5148 5141 5148 5138 5115 5102 5100 5098 5096 5089 5086 5087 5088 5089 5093 5097 5096 5096 5095 5095 5095 5095 5095 5094 5095 5093 5092 5091 5093 5095 5099 5101 5104 5106 5110 5114 5118 5119 5123 5127 5129 5132
5126 5133 5117 5120 5117 5116 5104 5088 5092 5085 5078 5076 5082 5079 5081 5085 5083 5080 5080 5078 5077 5077 5076 5075 5073 5074 5074 5072 5071 5071 5072 5072 5076 5079 5082 5084 5088 5091 5095 5097 5099 5104 5110 5114
5117 5113 5098 5105 5089 5093 5095 5086 5077 5074 5077 5076 5077 5077 5072 5066 5065 5062 5060 5058 5057 5056 5055 5053 5051 5051 5050 5049 5049 5049 5047 5048 5049 5053 5056 5058 5063 5065 5067 5070 5076 5077 5085 5092